White Plains, CT

8:14 AM EST on November 13, 2019 (GMT -0500)
Westchester County

Weather History for KHPN - September, 2019

Change the Weather History Date:

Thursday, September 12, 2019

  Actual Average Record
Temperature  
Mean Temperature 69 °F -  
Max Temperature 78 °F 73 °F 90 °F (2005)
Min Temperature 60 °F 56 °F 40 °F (1977)
Cooling Degree Days 4    
Growing Degree Days 19 (Base 50)    
Moisture  
Dew Point 65 °F    
Average Humidity 85    
Maximum Humidity 93    
Minimum Humidity 69    
Precipitation  
Precipitation 0.08 in - - ()
Sea Level Pressure  
Sea Level Pressure 30.09 in    
Wind  
Wind Speed 4 mph ()    
Max Wind Speed 13 mph    
Max Gust Speed 17 mph    
Visibility 8.8 miles    
Events Rain    
Averages and records for this station are not official NWS values.
T = Trace of Precipitation, MM = Missing Value Source: Averaged Metar Reports

Daily Weather History Graph

Daily Weather History Graph

Search for Another Location

Airport or City:

Astronomy

Sep. 12, 2019 Rise Set
Actual Time 6:32 AM EDT 7:09 PM EDT
Civil Twilight 6:04 AM EDT 7:37 PM EDT
Nautical Twilight 5:31 AM EDT 8:09 PM EDT
Astronomical Twilight 4:57 AM EDT 8:43 PM EDT
Moon 6:53 PM EDT (9/12) 4:47 AM EDT (9/12)
Length of Visible Light 13h 32m
Length of Day
12h 37m
Waxing Gibbous, 98% of the Moon is Illuminated
Sep 12
Waxing Gibbous
Sep 14
Full
Sep 21
Last Quarter
Sep 28
New
Oct 5
First Quarter

Hourly Weather History & Observations

Time (EDT) Temp. Dew Point Humidity Pressure Visibility Wind Dir Wind Speed Gust Speed Precip Events Conditions
12:56 AM 75.0 °F 71.1 °F 87% 30.00 in 10.0 mi West 4.6 mph - N/A   Mostly Cloudy
1:56 AM 73.9 °F 71.1 °F 91% 29.99 in 10.0 mi Calm Calm - N/A   Scattered Clouds
2:56 AM 73.0 °F 71.1 °F 93% 29.98 in 10.0 mi West 3.5 mph - N/A   Mostly Cloudy
3:56 AM 72.0 °F 70.0 °F 93% 29.98 in 10.0 mi Calm Calm - N/A   Mostly Cloudy
4:56 AM 72.0 °F 70.0 °F 93% 29.98 in 8.0 mi Calm Calm - N/A   Mostly Cloudy
5:56 AM 73.0 °F 71.1 °F 93% 29.99 in 5.0 mi North 4.6 mph - 0.04 in Rain Rain
6:56 AM 71.1 °F 68.0 °F 90% 30.01 in 6.0 mi NNE 5.8 mph - 0.01 in   Mostly Cloudy
7:56 AM 72.0 °F 69.1 °F 91% 30.03 in 10.0 mi North 5.8 mph - 0.00 in   Mostly Cloudy
8:56 AM 75.0 °F 69.1 °F 82% 30.04 in 10.0 mi North 6.9 mph - N/A   Partly Cloudy
9:56 AM 75.9 °F 68.0 °F 76% 30.05 in 10.0 mi NNE 8.1 mph - N/A   Scattered Clouds
10:56 AM 77.0 °F 66.0 °F 69% 30.05 in 10.0 mi NE 5.8 mph - N/A   Mostly Cloudy
11:56 AM 75.9 °F 66.0 °F 71% 30.06 in 10.0 mi North 6.9 mph - N/A   Mostly Cloudy
12:54 PM 73.4 °F 66.2 °F 78% 30.09 in 2.5 mi North 5.8 mph - 0.00 in Rain Light Rain
1:56 PM 71.1 °F 68.0 °F 90% 30.08 in 3.0 mi Variable 3.5 mph - 0.03 in Rain Light Rain
2:56 PM 71.1 °F 66.9 °F 87% 30.08 in 10.0 mi Variable 3.5 mph - 0.00 in   Mostly Cloudy
3:03 PM 71.1 °F 66.9 °F 87% 30.10 in 10.0 mi NE 4.6 mph - N/A   Mostly Cloudy
3:56 PM 71.1 °F 66.0 °F 84% 30.09 in 10.0 mi North 6.9 mph - N/A   Overcast
4:56 PM 69.1 °F 64.9 °F 87% 30.11 in 10.0 mi NNE 6.9 mph - 0.00 in   Light Drizzle
5:56 PM 68.0 °F 64.0 °F 87% 30.14 in 10.0 mi NE 6.9 mph - 0.00 in   Overcast
6:56 PM 66.9 °F 61.0 °F 81% 30.17 in 10.0 mi NE 9.2 mph - N/A   Overcast
7:56 PM 64.0 °F 60.1 °F 87% 30.21 in 5.0 mi NE 8.1 mph - 0.00 in Rain Light Rain
8:56 PM 63.0 °F 57.0 °F 81% 30.24 in 10.0 mi NE 12.7 mph 17.3 mph 0.00 in Rain Light Rain
9:56 PM 62.1 °F 55.9 °F 80% 30.27 in 10.0 mi ENE 6.9 mph - 0.00 in   Overcast
10:56 PM 61.0 °F 55.0 °F 81% 30.27 in 10.0 mi ENE 6.9 mph - N/A   Overcast
11:56 PM 60.1 °F 54.0 °F 80% 30.28 in 10.0 mi Variable 5.8 mph - N/A   Mostly Cloudy